sat.trackr.live / text

‹ back to catalog

STARLINK-4790

NORAD 53859 · 2022-114AT

PAYLOAD ACTIVE UNKNOWN

§ Identity

Operator
Country
US
Launch date
2022-09-19
Launch site
AFETR
Launch vehicle
Mass (kg)
RCS (m²)

Purposes: comms

External: N2YO · Heavens-Above · Gunter

§ Orbital elements

Epoch: 2026-05-25T04:14:39.533280Z

Period
95.44 min
Inclination
53.2144°
Eccentricity
0.0000832
Mean motion
15.08837564 rev/d
Perigee alt
539.2 km
Apogee alt
540.3 km
Semi-major
6,917.9 km
B*
2.4872e-5
RAAN
305.4109°
Arg perigee
70.6770°
Mean anomaly
289.4312°
Rev number
20,459

§ Raw data

STARLINK-47901 53859U 22114AT  26145.17684645  .00000108  00000+0  24872-4 0  99942 53859  53.2144 305.4109 0000832  70.6770 289.4312 15.08837564204599

JSON: /api/v1/satellites/53859 · /tle

For live sub-satellite position, see the globe view (requires WebGL).

§ Visibility from observer

Set your observer location to see the next 7 days of passes ≥ 10°. The values pass through the URL so the page stays shareable.

No JS? Fill the form by hand. The geolocation button needs JavaScript.